Theta_e
290 290 290 290 290 290 290 290 290 290 290 291 292 293 294 294 294 294 294 294 292 290 289 288 287 287 287 287 286 286 286 286 286 286 285 285 285 285 285 285 285 285
289 289 289 289 289 289 289 289 290 290 290 291 292 292 293 293 293 293 293 292 291 289 289 288 288 288 287 287 287 286 286 286 286 286 286 285 285 285 285 285 285 285
289 289 289 289 288 288 288 288 288 289 289 289 290 290 291 291 291 291 291 291 291 290 289 289 289 289 288 287 287 286 286 286 286 286 286 285 285 285 285 285 285 285
287 287 288 288 288 288 288 287 287 287 287 287 288 288 288 289 289 289 289 290 290 290 290 289 289 289 288 288 287 287 286 286 287 286 286 286 285 285 285 285 285 285
285 285 286 286 286 287 287 287 287 286 286 286 286 286 287 287 287 287 288 288 288 289 289 289 289 288 288 288 287 287 287 287 287 287 286 286 286 285 285 285 285 285
282 282 283 283 284 284 284 284 285 285 286 286 286 286 286 286 286 286 287 287 287 287 287 288 288 288 288 288 288 287 287 287 287 286 286 286 285 285 285 285 284 284
279 279 280 280 281 281 281 281 282 282 283 284 284 285 285 285 285 285 285 285 285 286 286 286 286 287 287 286 286 286 286 286 286 285 285 285 285 285 284 284 284 284
277 278 278 278 279 279 279 279 279 280 280 281 282 282 283 284 284 284 284 284 284 284 284 284 284 284 285 285 285 285 285 284 284 284 284 284 284 284 284 284 284 284
276 276 277 277 277 277 277 277 278 278 278 279 279 280 280 281 282 282 283 283 283 283 283 283 283 283 283 283 283 283 284 284 284 284 284 283 283 283 284 284 283 283
273 273 274 274 274 275 275 276 276 277 277 277 278 278 279 279 280 280 281 282 282 282 282 282 282 282 282 282 282 282 282 282 283 283 283 283 283 283 283 283 283 283
271 271 272 272 272 272 273 273 274 275 276 276 277 277 278 278 279 279 280 280 280 280 281 281 281 282 282 282 281 281 281 281 281 282 282 282 282 282 283 283 282 282
270 270 270 270 270 271 271 271 272 272 273 274 274 275 276 277 277 278 278 278 278 279 279 280 280 280 281 281 281 281 280 280 280 280 281 281 281 281 282 282 282 282
268 269 269 269 269 270 270 270 270 271 271 272 272 273 274 275 275 276 277 277 277 277 278 278 278 279 279 279 280 280 280 280 280 280 280 280 280 280 280 281 281 281
268 268 268 268 269 269 269 269 269 270 270 270 271 272 272 273 273 274 275 275 276 276 277 277 277 277 278 278 278 279 279 279 279 280 280 280 280 280 280 280 280 280
267 267 267 267 268 268 268 268 268 269 269 269 270 270 271 271 271 272 273 274 274 275 275 276 276 276 277 277 277 277 278 278 278 278 279 279 279 280 280 280 279 279
267 267 267 266 267 267 267 267 267 267 268 268 269 269 270 270 271 271 271 272 272 273 274 274 275 275 276 276 276 276 277 277 277 278 278 278 278 278 279 279 279 279
267 267 266 266 266 266 266 266 266 266 266 267 267 268 269 269 269 269 270 270 270 271 271 272 273 273 274 275 275 276 277 277 277 277 277 277 277 277 277 278 278 278
266 266 266 266 265 265 265 265 265 265 265 266 266 267 267 267 267 268 268 269 269 269 270 270 271 272 272 273 274 275 276 276 277 276 276 276 276 276 276 276 276 276
266 265 265 265 265 265 265 265 265 265 265 265 265 266 266 266 266 266 267 267 268 268 269 270 270 271 271 271 273 274 275 276 276 276 276 275 275 275 275 274 275 275
265 265 265 265 264 264 264 264 264 264 264 264 265 265 265 265 265 265 266 266 267 268 269 269 270 270 270 271 272 273 274 275 275 275 275 274 274 274 274 273 273 274
265 264 264 264 264 264 264 264 264 263 263 264 264 264 264 264 265 265 265 265 266 268 269 269 269 269 269 271 272 273 273 274 274 274 274 273 273 273 273 272 272 272
264 264 264 263 263 263 263 263 263 263 263 263 263 263 263 263 263 264 264 264 265 266 267 267 268 268 269 270 271 272 273 273 273 273 273 273 273 272 272 272 272 271
264 264 263 263 263 262 262 262 262 262 262 262 262 262 262 262 262 263 263 263 264 265 266 266 267 268 269 269 271 272 272 272 272 273 273 272 272 272 272 272 271 271
264 263 263 262 262 262 262 261 261 261 261 261 261 261 261 261 262 262 263 263 263 264 266 266 267 267 268 268 269 271 271 271 271 271 271 272 272 272 272 271 271 271
263 263 262 262 261 261 261 261 261 261 261 261 261 260 260 261 261 261 262 262 263 264 266 266 266 266 266 267 268 269 270 270 270 270 270 270 271 271 272 271 271 270
263 262 262 261 261 261 260 260 260 260 260 260 260 260 260 260 260 261 261 261 262 263 264 265 265 265 265 266 266 268 268 269 269 269 268 269 269 270 271 271 270 270
Wind_Speed
13 15 16 17 18 19 20 20 21 22 23 24 23 23 22 22 23 26 27 28 28 28 28 27 26 27 27 28 28 28 28 27 27 27 26 27 28 28 28 29 29 29
9 10 11 12 13 14 16 18 20 21 22 23 23 22 21 20 20 22 23 24 25 26 26 26 26 26 27 27 28 28 28 28 28 27 27 28 28 28 29 29 29 29
3 5 7 8 9 10 11 13 15 17 19 20 20 21 21 20 19 19 20 21 22 23 24 25 26 26 26 26 27 28 28 28 28 28 28 29 29 29 29 29 29 29
6 4 2 2 4 6 7 9 10 12 14 15 16 18 19 20 20 20 21 22 23 23 24 25 25 26 26 26 26 27 28 28 28 28 29 30 30 30 30 29 30 30
15 13 10 8 5 3 1 2 3 6 9 10 12 13 15 17 18 20 20 21 23 23 24 25 25 25 26 26 27 28 28 29 29 29 30 31 31 31 31 30 31 31
24 22 19 17 14 12 10 8 5 1 2 5 8 9 11 12 14 16 18 20 21 22 23 24 25 25 26 27 28 29 29 30 30 30 31 32 32 32 32 31 31 31
30 28 27 25 23 21 20 19 16 12 9 4 0 3 5 7 9 11 13 15 18 19 21 22 23 24 25 26 27 28 29 30 30 30 31 32 31 32 32 31 32 32
31 30 29 28 27 27 26 25 23 21 18 15 12 9 5 1 2 5 8 10 12 14 16 18 20 21 22 24 26 27 27 28 29 29 30 31 30 31 31 31 31 32
31 30 28 28 28 28 27 26 25 24 22 21 19 17 14 12 9 5 2 2 5 8 10 13 15 17 18 20 22 24 25 26 27 28 29 29 30 30 30 30 31 31
32 30 29 29 28 27 26 25 24 23 22 21 20 19 17 16 14 12 10 7 5 3 3 5 8 11 14 16 18 19 22 23 25 26 27 28 29 30 30 30 30 31
32 31 31 30 29 27 26 24 23 22 21 21 20 19 18 16 15 14 13 12 10 9 8 6 5 6 8 10 13 15 17 19 21 23 25 26 28 28 29 29 30 31
33 32 31 30 29 28 26 25 24 23 21 21 20 19 18 16 15 15 14 13 12 11 9 8 8 7 7 6 7 9 12 14 17 19 21 23 25 26 27 28 29 30
32 31 30 30 29 28 27 26 25 24 22 22 20 18 17 17 16 15 14 13 12 11 10 9 8 8 7 7 7 7 8 9 11 14 16 19 21 23 24 26 27 28
30 30 29 29 29 28 28 27 26 25 23 22 20 19 18 17 16 15 14 12 11 11 10 9 9 8 8 8 8 8 9 9 9 10 12 14 15 17 19 21 23 25
29 29 28 29 29 29 29 28 27 26 24 23 21 19 18 16 15 15 14 13 13 12 11 10 10 10 9 9 9 10 11 11 11 11 12 13 13 14 14 16 18 20
28 28 28 29 30 30 30 30 29 28 26 24 22 20 18 17 16 16 16 16 15 15 14 13 12 12 11 10 10 11 12 12 13 13 13 13 14 14 15 15 15 16
27 28 28 29 30 30 30 30 30 29 28 26 25 22 20 19 18 18 17 17 17 17 17 16 16 15 14 13 12 12 13 13 14 14 14 14 14 14 15 15 16 17
25 27 27 28 29 30 30 30 30 30 29 28 26 24 21 20 19 19 19 18 18 19 19 19 18 16 16 15 14 14 15 14 14 15 15 15 15 15 15 16 16 17
24 25 27 28 29 29 30 30 30 30 29 28 25 23 20 19 20 20 20 20 19 20 20 19 19 19 17 17 16 16 16 15 15 16 16 17 17 18 19 18 18 18
23 24 26 27 28 29 30 31 31 31 30 27 24 23 21 21 21 21 21 21 20 20 20 19 19 20 20 18 18 17 17 16 16 17 18 19 20 21 21 21 20 19
22 23 25 25 27 28 29 30 31 30 30 27 24 23 22 20 21 22 22 22 21 21 20 18 19 21 20 19 18 18 18 17 18 19 20 21 22 23 23 22 21 20
21 22 24 24 26 27 28 28 29 29 28 25 24 23 21 19 20 22 22 22 21 20 20 20 21 21 19 18 18 18 18 17 18 19 20 22 23 23 21 21 21 21
20 22 24 24 25 26 27 26 27 26 25 23 23 22 21 22 24 24 22 21 21 20 20 21 21 19 17 17 17 16 17 17 18 19 20 21 21 20 19 21 21 20
21 23 24 24 25 25 25 26 26 25 22 20 19 20 22 24 25 25 24 23 22 21 20 20 19 17 15 16 16 16 17 18 19 20 20 19 19 19 20 20 18 18
22 24 24 24 24 24 24 25 25 23 21 19 19 20 23 23 22 22 23 23 21 18 17 18 19 18 17 18 18 18 17 18 20 20 19 19 18 18 18 17 18 20
22 23 23 22 23 24 25 25 25 22 21 20 21 22 23 22 20 20 22 22 19 16 16 18 20 21 21 20 19 18 18 18 19 19 19 19 19 19 18 19 20 18
Wind_Direction
231 231 230 230 228 228 228 227 225 224 224 226 231 237 242 244 245 242 241 243 245 246 247 247 249 250 250 249 249 249 249 250 250 249 248 247 248 248 248 248 247 247
248 244 241 238 235 233 233 234 233 232 233 235 239 244 247 248 250 250 250 250 249 249 250 251 253 253 252 252 251 251 252 252 253 252 251 251 251 250 250 250 250 250
292 275 262 254 249 245 243 241 238 236 236 238 241 243 246 247 248 250 252 253 253 253 253 253 254 255 255 255 254 254 253 254 256 257 256 255 253 252 252 253 253 252
48 36 9 308 276 267 262 253 248 244 241 242 242 242 244 245 245 246 248 251 253 255 255 255 256 257 259 258 257 255 255 256 259 259 258 257 256 255 255 255 254 254
60 59 59 57 55 49 339 260 256 254 251 250 251 254 254 252 251 251 251 253 255 256 258 259 259 260 261 261 259 258 258 258 259 258 256 257 257 256 256 255 254 253
61 60 61 62 64 66 65 62 58 34 271 259 256 259 260 259 259 260 260 260 259 259 260 260 261 262 262 261 260 259 258 258 258 256 254 254 255 256 255 254 253 253
57 58 58 60 61 62 61 59 57 57 59 56 1 263 257 252 252 254 257 260 260 261 261 261 262 262 262 260 258 257 257 256 255 253 251 251 252 252 252 253 253 253
54 54 54 55 56 56 54 54 53 54 56 59 60 58 57 53 250 248 248 249 253 258 261 262 263 263 262 260 257 256 256 256 255 253 252 252 251 251 252 253 254 254
49 48 48 48 48 47 45 45 46 46 48 50 52 53 55 57 55 50 27 266 252 255 258 261 263 263 264 263 261 260 259 259 258 257 255 255 253 254 256 256 255 255
42 42 42 41 40 38 37 37 36 37 38 39 40 42 44 47 49 50 51 49 46 25 317 283 272 268 266 265 265 266 265 265 264 262 261 260 259 260 261 260 258 257
37 36 36 36 34 32 31 30 28 28 28 29 30 31 32 34 36 38 39 40 40 36 29 18 352 316 290 277 271 269 268 268 268 268 267 266 265 265 264 264 262 261
34 33 32 31 30 29 27 25 24 22 21 22 21 21 22 24 26 28 29 29 30 28 25 21 14 4 348 326 304 286 277 272 270 270 270 270 269 269 268 267 266 265
31 29 29 28 26 26 24 21 20 19 17 16 15 14 15 15 16 17 18 19 18 17 18 15 11 5 357 349 340 326 311 295 284 278 274 273 272 271 271 270 269 268
28 26 25 24 23 22 20 18 16 15 13 12 10 9 9 10 9 8 5 4 3 3 4 3 2 360 355 351 345 338 330 318 308 297 289 283 279 276 274 272 272 270
25 24 22 21 19 18 16 14 13 11 9 8 7 6 5 4 3 0 357 353 350 349 347 346 347 348 348 351 349 343 335 325 317 310 303 297 291 287 282 278 276 274
21 20 19 17 16 14 12 11 9 8 6 4 3 2 1 0 359 356 353 351 347 343 339 337 336 334 333 335 339 338 333 327 321 315 310 305 300 295 290 286 283 281
16 15 14 13 12 10 8 7 5 4 3 1 359 359 359 359 358 354 352 352 348 342 338 334 331 329 326 320 321 327 327 323 319 315 311 308 306 304 300 294 290 286
12 11 10 8 7 6 4 3 2 1 360 358 357 357 356 356 355 353 351 350 346 341 340 337 333 331 327 320 317 321 323 319 314 309 306 304 303 303 304 302 297 293
7 6 5 4 3 1 359 359 358 357 357 355 354 353 352 350 348 348 347 346 345 343 341 339 336 334 333 329 322 319 317 314 309 304 299 298 298 298 300 300 299 296
2 1 0 359 357 356 354 354 354 353 353 352 350 349 347 345 344 343 341 341 342 342 340 338 335 333 334 331 325 321 316 309 303 298 296 297 298 297 298 298 297 296
357 355 355 353 352 351 350 350 350 349 348 348 346 345 343 340 339 338 336 336 339 341 339 332 327 328 329 328 325 323 317 309 301 297 297 300 301 301 302 301 301 300
351 349 349 348 347 347 346 347 346 345 344 343 340 339 339 335 333 333 331 330 332 333 328 321 320 326 327 324 324 324 319 312 304 299 299 301 304 305 305 304 305 304
345 343 343 342 342 343 343 343 343 341 340 339 336 334 332 330 329 328 328 327 326 326 323 320 324 333 331 325 326 327 325 322 316 310 306 303 301 302 302 304 306 306
338 337 337 337 337 338 338 338 339 337 335 335 332 326 324 326 326 325 323 324 323 325 328 328 330 336 335 331 330 328 327 328 325 321 316 308 302 300 300 301 302 305
331 330 331 332 332 333 334 334 334 333 330 328 325 321 321 323 324 322 321 320 321 324 329 329 325 324 324 326 327 324 323 325 325 323 320 316 313 307 301 299 301 305
324 325 325 327 329 329 329 329 329 327 325 323 321 320 322 322 322 321 319 319 321 321 317 313 312 313 314 318 320 319 317 318 320 323 322 320 318 312 304 302 301 300